Waarnemingen

Advertentie
Mijn weer
Agen, Frankrijk (7524): temperatuur & dauwpunt: 19.09.2017 06:00:00 - 25.09.2017 06:00:00 (CEST)Agen, Frankrijk (7524): temperatuur 5cm: 19.09.2017 06:00:00 - 25.09.2017 06:00:00 (CEST)Agen, Frankrijk (7524): temperatuur -20cm & temperatuur -100cm: 19.09.2017 06:00:00 - 25.09.2017 06:00:00 (CEST)Agen, Frankrijk (7524): windsnelheid & windstoten: 19.09.2017 06:00:00 - 25.09.2017 06:00:00 (CEST)Agen, Frankrijk (7524): windrichting: 19.09.2017 06:00:00 - 25.09.2017 06:00:00 (CEST)Agen, Frankrijk (7524): luchtdruk: 19.09.2017 06:00:00 - 25.09.2017 06:00:00 (CEST)Agen, Frankrijk (7524): zicht: 19.09.2017 06:00:00 - 25.09.2017 06:00:00 (CEST)Agen, Frankrijk (7524): Zonneschijnduur: 19.09.2017 06:00:00 - 25.09.2017 06:00:00 (CEST)Agen, Frankrijk (7524): neerslag: 19.09.2017 06:00:00 - 25.09.2017 06:00:00 (CEST)
Datum & Tijd tt [°C] td [°C] tt 5cm [°C] tt -20cm [°C] tt -100cm [°C] ff [km/u] ff [kn] fx [km/u] fx [kn] dd ppp [hPa] vv [km] sd [min] rr [mm]
25.09.2017 06:00:00 16,4 14,8 12,8 16,9 17,3 27 14 38 21 WNW 1019,6 3,9 0 0,8
25.09.2017 05:00:00 14,0 12,0 12,5 16,9 17,3 0 0 21 11 N 1017,9 29 0 0,0
25.09.2017 04:00:00 13,9 12,3 7,5 17,0 17,3 4 2 9 5 WZW 1017,8 30 0 0,0
25.09.2017 03:00:00 13,4 12,1 7,5 17,0 17,3 0 0 9 5 N 1017,4 17 0 0,0
25.09.2017 02:00:00 13,8 11,7 7,6 17,1 17,3 4 2 6 3 OZO 1017,4 33 0 0,0
25.09.2017 01:00:00 15,5 12,4 8,8 17,1 17,3 4 2 8 5 ZO 1017,5 33 0 0,0
25.09.2017 00:00:00 15,3 11,9 8,8 17,1 17,3 3 1 8 4 ZZO 1017,5 37 0 0,0
24.09.2017 23:00:00 16,5 11,8 9,9 17,1 17,3 6 4 10 5 OZO 1017,7 44 0 0,0
24.09.2017 22:00:00 16,3 11,7 10,7 17,1 17,3 9 5 10 5 O 1017,6 43 0 0,0
24.09.2017 21:00:00 18,8 11,6 11,6 17,0 17,3 6 3 7 4 ZO 1017,5 50 0 0,0
24.09.2017 20:00:00 22,2 12,2 14,0 16,9 17,3 6 3 10 6 OZO 1017,3 17 14 0,0
24.09.2017 19:00:00 26,1 12,9 23,8 16,8 17,3 7 4 14 8 O 1017,3 49 49 0,0
24.09.2017 18:00:00 27,8 11,4 29,5 16,6 17,3 10 6 18 10 O 1017,3 60 60 0,0
24.09.2017 17:00:00 27,9 12,3 33,6 16,5 17,3 9 5 17 9 O 1017,6 60 60 0,0
24.09.2017 16:00:00 27,9 13,0 37,5 16,4 17,3 9 5 18 10 OZO 1018,0 29 60 0,0
24.09.2017 15:00:00 27,1 13,8 38,1 16,3 17,3 10 5 22 12 OZO 1018,4 26 60 0,0
24.09.2017 14:00:00 25,2 14,9 36,9 16,3 17,3 11 6 17 9 O 1019,1 19 60 0,0
24.09.2017 13:00:00 22,6 15,4 35,1 16,2 17,3 9 5 15 8 OZO 1019,5 32 60 0,0
24.09.2017 12:00:00 19,8 15,2 23,3 16,2 17,3 4 2 11 6 O 1020,1 19 55 0,0
24.09.2017 11:00:00 15,9 14,8 17,3 16,3 17,3 4 2 8 5 O 1020,4 9 0 0,0
24.09.2017 10:00:00 14,2 13,4 13,9 16,3 17,3 5 3 7 4 O 1020,5 3,3 0 0,0
24.09.2017 09:00:00 12,7 12,1 7,2 16,3 17,3 5 3 8 4 O 1020,2 12 25 0,0
24.09.2017 08:00:00 10,7 9,9 7,1 16,4 17,3 7 4 8 5 ZO 1020,0 2,1 0 0,0
24.09.2017 07:00:00 11,3 10,5 7,3 16,5 17,3 6 3 7 4 OZO 1019,6 15 0 0,2
24.09.2017 06:00:00 11,9 11,1 6,6 16,5 17,3 5 3 6 3 OZO 1019,5 14 0 0,0
24.09.2017 05:00:00 11,5 10,6 6,7 16,6 17,3 4 2 7 4 OZO 1019,4 10 0 0,0
24.09.2017 04:00:00 12,1 11,2 6,5 16,6 17,3 4 2 6 3 OZO 1019,3 20 0 0,0
24.09.2017 03:00:00 13,2 12,3 7,5 16,7 17,3 3 2 8 5 OZO 1019,5 22 0 0,0
24.09.2017 02:00:00 13,5 12,2 7,8 16,8 17,3 5 3 7 4 OZO 1019,2 24 0 0,0
24.09.2017 01:00:00 13,9 12,3 7,8 16,8 17,4 0 0 8 4 N 1019,2 23 0 0,0
24.09.2017 00:00:00 13,8 11,7 8,2 16,8 17,4 5 3 6 4 OZO 1019,1 35 0 0,0
23.09.2017 23:00:00 14,7 12,6 8,8 16,8 17,3 0 0 3 2 N 1019,0 32 0 0,0
23.09.2017 22:00:00 15,7 12,4 9,4 16,8 17,4 0 0 2 1 N 1018,8 42 0 0,0
23.09.2017 21:00:00 17,4 12,3 10,5 16,7 17,3 0 0 3 1 N 1018,3 16 0 0,0
23.09.2017 20:00:00 21,7 12,8 14,1 16,6 17,4 0 0 13 7 N 1017,9 1,2 31 0,0
23.09.2017 19:00:00 24,5 12,4 23,4 16,5 17,3 10 6 15 8 O 1017,8 48 60 0,0
23.09.2017 18:00:00 25,4 12,3 28,1 16,4 17,4 10 5 18 10 O 1017,5 52 60 0,0
23.09.2017 17:00:00 25,1 12,3 30,0 16,3 17,4 10 5 16 9 O 1017,9 43 60 0,0
23.09.2017 16:00:00 25,1 12,7 33,9 16,2 17,4 9 5 21 11 O 1018,4 35 60 0,0
23.09.2017 15:00:00 24,2 12,2 33,9 16,1 17,4 13 7 24 13 OZO 1019,0 33 60 0,0
23.09.2017 14:00:00 23,1 13,0 33,1 16,1 17,4 12 6 21 12 ZO 1019,6 38 60 0,0
23.09.2017 13:00:00 21,0 13,9 28,8 16,1 17,4 13 7 21 11 OZO 1019,9 46 60 0,0
23.09.2017 12:00:00 15,9 15,1 17,9 16,0 17,4 11 6 19 11 ZO 1020,7 9 13 0,0
23.09.2017 11:00:00 14,1 13,6 15,4 16,1 17,4 12 7 18 10 OZO 1020,8 0,6 0 0,0
23.09.2017 10:00:00 12,7 12,2 13,7 16,1 17,4 10 6 16 8 OZO 1020,9 0,2 0 0,0
23.09.2017 09:00:00 12,2 11,6 12,1 16,1 17,4 3 1 5 3 O 1021,1 0,1 0 0,0
23.09.2017 08:00:00 11,8 11,2 11,8 16,1 17,4 4 2 6 3 ZO 1021,1 0,2 0 0,0
23.09.2017 07:00:00 11,8 11,0 11,4 16,2 17,4 0 0 4 2 N 1021,0 0,1 0 0,2
23.09.2017 06:00:00 11,9 11,1 9,8 16,2 17,4 0 0 0 0 N 1021,0 0,1 0 0,0
23.09.2017 05:00:00 11,6 10,8 7,4 16,3 17,4 0 0 5 3 N 1021,3 0,1 0 0,0
23.09.2017 04:00:00 11,8 11,0 8,3 16,3 17,4 3 1 5 3 W 1021,7 12 0 0,0
23.09.2017 03:00:00 11,9 11,1 7,2 16,4 17,4 0 0 3 1 N 1022,4 4,3 0 0,0
23.09.2017 02:00:00 11,7 10,8 6,7 16,4 17,4 2 1 4 2 NNW 1022,3 15 0 0,0
23.09.2017 01:00:00 12,3 11,2 6,9 16,4 17,4 0 0 3 2 N 1022,5 9 0 0,0
23.09.2017 00:00:00 13,6 12,3 7,4 16,4 17,4 0 0 5 3 N 1022,6 1,2 0 0,0
22.09.2017 23:00:00 14,6 12,6 9,4 16,4 17,4 5 3 8 4 W 1022,6 26 0 0,0
22.09.2017 22:00:00 15,9 13,2 10,7 16,4 17,4 5 3 7 4 W 1022,3 33 0 0,0
22.09.2017 21:00:00 17,3 14,0 14,3 16,4 17,4 4 2 12 6 W 1022,2 31 0 0,0
22.09.2017 20:00:00 17,3 13,6 15,6 16,3 17,5 7 4 11 6 NW 1021,7 5 0 0,0
22.09.2017 19:00:00 19,4 13,6 19,7 16,2 17,4 8 5 12 7 WNW 1021,6 58 0 0,0
22.09.2017 18:00:00 20,7 13,4 24,0 16,1 17,4 8 4 16 9 WNW 1021,5 50 1 0,0
22.09.2017 17:00:00 20,7 12,4 25,7 16,0 17,4 4 2 18 10 NNW 1021,8 19 0 0,0
22.09.2017 16:00:00 20,5 11,9 26,0 15,9 17,5 14 8 21 11 NW 1022,0 60 29 0,0
22.09.2017 15:00:00 20,8 10,9 28,7 15,8 17,4 7 4 15 8 WNW 1021,9 49 53 0,0
22.09.2017 14:00:00 19,3 13,7 24,6 15,8 17,5 5 3 13 7 NNW 1022,1 34 27 0,0
22.09.2017 13:00:00 17,7 13,6 22,5 15,8 17,5 6 3 13 7 W 1022,5 34 0 0,0
22.09.2017 12:00:00 16,4 13,3 20,9 15,8 17,5 5 3 11 6 WNW 1022,3 22 0 0,0
22.09.2017 11:00:00 15,5 13,0 17,9 15,8 17,5 9 5 15 8 NW 1022,4 19 25 0,0
22.09.2017 10:00:00 15,1 12,6 12,5 15,8 17,5 8 4 10 6 NW 1022,3 28 52 0,0
22.09.2017 09:00:00 12,0 10,9 6,2 15,9 17,5 0 0 3 2 N 1021,9 26 3 0,0
22.09.2017 08:00:00 10,8 9,6 6,1 15,9 17,5 0 0 4 2 N 1021,2 20 0 0,0
22.09.2017 07:00:00 11,4 9,8 7,4 15,9 17,5 4 2 5 3 WNW 1021,0 30 0 0,0
22.09.2017 06:00:00 12,6 10,1 9,1 16,0 17,5 4 2 11 6 WNW 1020,8 47 0 0,0
22.09.2017 05:00:00 13,2 10,7 8,0 16,0 17,5 8 4 12 6 W 1020,8 47 0 0,0
22.09.2017 04:00:00 11,3 9,6 8,0 16,0 17,5 7 4 8 5 WNW 1020,6 39 0 0,0
22.09.2017 03:00:00 14,4 10,6 9,4 16,1 17,5 6 4 11 6 WZW 1020,5 55 0 0,0
22.09.2017 02:00:00 14,4 10,8 7,3 16,1 17,6 8 4 11 6 WZW 1020,4 58 0 0,0
22.09.2017 01:00:00 14,0 10,6 8,7 16,1 17,5 5 3 9 5 W 1020,0 59 0 0,0
22.09.2017 00:00:00 15,1 10,3 8,3 16,1 17,6 7 4 9 5 W 1019,6 60 0 0,0
21.09.2017 23:00:00 13,7 9,9 7,9 16,1 17,5 2 1 5 3 WNW 1019,4 47 0 0,0
21.09.2017 22:00:00 15,1 10,5 8,4 16,1 17,6 0 0 4 2 N 1018,8 52 0 0,0
21.09.2017 21:00:00 17,0 10,6 9,6 16,0 17,6 0 0 3 2 N 1018,2 53 0 0,0
21.09.2017 20:00:00 21,0 10,5 13,7 15,9 17,6 2 1 3 2 Z 1017,4 10 2 0,0
21.09.2017 19:00:00 24,4 8,8 23,1 15,7 17,6 4 2 10 5 NNW 1016,8 55 38 0,0
21.09.2017 18:00:00 24,8 8,7 26,4 15,6 17,6 5 3 10 6 ONO 1016,4 56 53 0,0
21.09.2017 17:00:00 24,9 9,2 31,5 15,5 17,6 4 2 10 5 NNO 1016,3 34 60 0,0
21.09.2017 16:00:00 24,8 9,9 35,1 15,4 17,6 6 3 14 8 ONO 1016,3 18 60 0,0
21.09.2017 15:00:00 23,8 10,8 35,6 15,3 17,6 7 4 18 10 O 1016,6 60 60 0,0
21.09.2017 14:00:00 22,3 10,8 34,6 15,2 17,6 9 5 18 10 ONO 1017,1 54 60 0,0
21.09.2017 13:00:00 20,5 10,6 32,2 15,2 17,6 11 6 19 10 O 1017,5 54 60 0,0
21.09.2017 12:00:00 18,3 10,4 25,0 15,3 17,7 9 5 18 10 O 1017,9 55 60 0,0
21.09.2017 11:00:00 15,0 9,8 14,4 15,3 17,7 10 6 19 10 O 1018,1 47 60 0,0
21.09.2017 10:00:00 12,2 9,4 9,7 15,3 17,6 14 8 20 11 OZO 1018,2 39 60 0,0
21.09.2017 09:00:00 9,6 8,0 4,9 15,4 17,7 11 6 16 9 OZO 1018,0 25 60 0,0
21.09.2017 08:00:00 7,4 6,5 2,3 15,5 17,7 8 4 11 6 OZO 1018,1 26 2 0,0
21.09.2017 07:00:00 7,9 7,0 3,2 15,5 17,7 5 3 7 4 OZO 1017,8 27 0 0,0
21.09.2017 06:00:00 7,9 6,8 3,5 15,6 17,7 4 2 12 6 OZO 1017,8 34 0 0,0
21.09.2017 05:00:00 7,8 7,0 2,6 15,6 17,7 9 5 11 6 OZO 1017,9 30 0 0,0
21.09.2017 04:00:00 8,1 7,2 3,1 15,7 17,7 6 3 9 5 OZO 1018,2 28 0 0,0
21.09.2017 03:00:00 8,4 7,5 3,0 15,8 17,7 5 3 8 4 OZO 1018,4 36 0 0,0
21.09.2017 02:00:00 9,2 7,6 - - - 5 3 5 3 OZO 1018,6 45 - -
21.09.2017 01:00:00 9,0 7,0 3,3 15,9 17,7 3 1 7 4 OZO 1018,6 55 0 0,0
21.09.2017 00:00:00 9,1 6,9 3,4 16,0 17,7 4 2 6 3 O 1018,9 55 0 0,0
20.09.2017 23:00:00 9,6 6,7 4,3 16,0 17,7 5 3 7 4 OZO 1019,1 52 0 0,0
20.09.2017 22:00:00 11,7 7,4 5,0 16,0 17,8 0 0 2 1 N 1019,4 45 0 0,0
20.09.2017 21:00:00 13,5 7,7 6,3 15,9 17,7 0 0 3 1 N 1019,5 46 0 0,0
20.09.2017 20:00:00 18,1 6,9 10,1 15,8 17,7 0 0 6 3 N 1019,4 22 46 0,0
20.09.2017 19:00:00 20,4 6,7 19,7 15,7 17,8 4 2 12 6 NO 1019,5 60 60 0,0
20.09.2017 18:00:00 21,1 5,8 24,4 15,5 17,7 6 4 13 7 NO 1019,7 20 60 0,0
20.09.2017 17:00:00 21,4 6,1 29,1 15,5 17,8 6 3 16 8 NO 1020,1 54 60 0,0
20.09.2017 16:00:00 21,0 6,5 32,8 15,3 17,8 6 3 19 10 NO 1020,6 56 60 0,0
20.09.2017 15:00:00 20,9 7,5 34,8 15,3 17,8 9 5 21 11 NO 1021,1 60 60 0,0
20.09.2017 14:00:00 19,9 8,2 34,2 15,3 17,8 8 4 19 11 O 1021,9 20 60 0,0
20.09.2017 13:00:00 18,6 8,3 33,3 15,3 17,8 8 5 14 8 O 1022,8 60 60 0,0
20.09.2017 12:00:00 16,7 9,4 26,4 15,3 17,8 9 5 15 8 ZO 1023,4 30 60 0,0
20.09.2017 11:00:00 13,9 9,5 14,1 15,3 17,8 5 3 9 5 O 1023,7 29 60 0,0
20.09.2017 10:00:00 10,6 8,7 8,5 15,4 17,8 5 3 8 4 O 1024,1 19 60 0,0
20.09.2017 09:00:00 8,0 7,4 1,7 15,5 17,8 5 3 6 3 O 1024,4 19 28 0,0
20.09.2017 08:00:00 5,5 4,8 0,3 15,6 17,8 0 0 5 3 N 1024,4 0,2 0 0,0
20.09.2017 07:00:00 5,8 5,1 0,4 15,7 17,9 0 0 3 2 N 1024,3 2,3 0 0,0
20.09.2017 06:00:00 5,6 4,7 0,5 15,8 17,8 0 0 0 0 N 1024,3 0,7 0 0,0
20.09.2017 05:00:00 6,6 5,7 1,0 15,9 17,9 0 0 3 2 N 1024,4 20 0 0,0
20.09.2017 04:00:00 7,1 5,7 1,3 16,0 17,9 0 0 5 3 N 1024,6 39 0 0,0
20.09.2017 03:00:00 6,9 5,5 1,5 16,1 17,9 0 0 4 2 N 1024,8 50 0 0,0
20.09.2017 02:00:00 7,7 6,0 1,9 16,1 17,9 3 2 6 3 NW 1024,9 54 0 0,0
20.09.2017 01:00:00 8,9 6,2 2,3 16,2 17,9 4 2 7 4 W 1025,2 60 0 0,0
20.09.2017 00:00:00 8,8 5,5 2,7 16,2 17,9 3 2 7 4 W 1025,4 58 0 0,0
19.09.2017 23:00:00 11,9 6,8 4,0 16,2 17,9 4 2 7 4 W 1025,5 60 0 0,0
19.09.2017 22:00:00 12,9 7,1 5,4 16,2 17,9 6 3 10 5 W 1025,1 57 0 0,0
19.09.2017 21:00:00 14,8 6,4 8,0 16,2 17,9 8 4 11 6 W 1024,5 60 0 0,0
19.09.2017 20:00:00 16,3 5,6 12,4 16,2 17,9 10 5 26 14 NNW 1023,9 57 31 0,0
19.09.2017 19:00:00 18,9 6,4 18,4 16,1 17,9 19 10 38 20 NNW 1023,3 60 60 0,0
19.09.2017 18:00:00 20,1 5,3 22,2 16,0 17,9 23 12 36 19 NW 1022,9 58 57 0,0
19.09.2017 17:00:00 20,4 8,4 23,6 15,9 17,9 24 13 36 19 NW 1022,8 39 60 0,0
19.09.2017 16:00:00 21,1 9,3 25,0 15,9 17,9 20 11 35 19 W 1022,8 43 54 0,0
19.09.2017 15:00:00 20,4 8,7 22,2 15,8 17,9 22 12 43 23 WNW 1023,2 37 49 0,0
19.09.2017 14:00:00 19,1 7,5 23,2 15,8 17,9 18 10 33 18 WNW 1023,9 60 48 0,0
19.09.2017 13:00:00 18,9 8,8 24,1 15,8 17,9 22 12 36 19 WNW 1024,2 60 49 0,0
19.09.2017 12:00:00 16,7 10,1 21,8 15,8 17,9 17 9 32 17 WNW 1024,6 39 39 0,0
19.09.2017 11:00:00 15,9 10,6 15,5 15,9 17,9 13 7 26 14 W 1024,5 18 58 0,0
19.09.2017 10:00:00 12,9 10,6 9,5 16,0 18,0 7 4 12 7 NW 1024,5 28 60 0,0
19.09.2017 09:00:00 9,7 8,9 2,5 16,0 18,0 5 3 10 5 WNW 1024,4 15 60 0,0
19.09.2017 08:00:00 7,1 6,2 2,1 16,1 17,9 4 2 7 4 NNW 1024,1 36 0 0,0
19.09.2017 07:00:00 7,6 6,8 3,4 16,2 18,0 5 3 6 4 W 1023,6 20 0 0,0
19.09.2017 06:00:00 7,9 7,1 3,1 16,2 18,0 4 2 7 4 W 1023,5 20 0 0,0

tt = temperatuur
td = dauwpunt
tt 5cm = temperatuur 5cm
tt -20cm = temperatuur -20cm
tt -100cm = temperatuur -100cm
ff = windsnelheid
fx = windstoten
dd = windrichting
ppp = luchtdruk
vv = zicht
sd = Zonneschijnduur
rr = neerslag

Weerstations in de omgeving